Temperature
29 30 30 31 32 33 33 33 33 34 35 34 33 32 32 32 32 31 30 29 28 27 26 25 24 23 22 21 21 21 20 20 20 20 20 20 19 19 19 19 19 19 18 18
30 29 31 33 33 33 33 33 33 34 34 33 33 32 32 32 33 32 31 30 29 28 27 25 24 23 22 22 21 21 21 20 20 20 20 19 19 19 19 19 19 19 19 18
30 31 32 32 32 32 32 32 33 33 34 34 33 32 32 33 33 32 32 31 30 28 27 25 24 23 22 22 21 21 21 21 21 20 20 19 19 19 19 19 19 19 19 19
30 32 32 32 32 32 31 33 33 33 32 32 32 31 32 33 33 33 32 31 30 29 28 26 24 23 23 22 22 21 21 21 21 20 20 19 19 19 19 19 19 19 19 19
30 31 31 31 32 32 32 33 33 32 32 32 32 31 32 33 32 33 32 32 31 30 28 27 25 24 23 22 22 21 21 21 21 20 20 20 19 19 19 19 19 19 19 19
31 32 32 32 32 33 33 32 32 32 32 30 31 31 31 33 32 33 33 32 31 30 29 27 26 24 23 23 22 21 21 21 21 21 20 20 20 19 19 19 19 19 19 19
29 31 32 32 31 32 32 30 29 29 29 29 31 31 31 33 34 33 33 32 31 30 29 28 26 25 24 23 22 21 21 21 21 21 21 20 20 20 19 19 19 19 19 19
28 29 31 31 31 31 31 30 29 28 29 30 31 31 32 34 34 33 33 32 31 30 29 28 27 25 24 23 22 22 21 21 21 21 21 21 20 20 20 20 19 19 19 19
29 29 31 32 32 31 30 30 31 30 30 30 31 32 33 33 33 33 32 32 31 30 29 28 27 26 25 23 23 22 21 21 21 21 21 20 20 20 20 20 19 19 19 19
30 29 31 31 31 31 32 31 31 30 28 29 30 31 31 31 32 33 32 32 31 30 29 28 27 26 25 24 23 22 21 21 21 20 20 20 20 20 20 19 19 19 19 19
30 29 30 30 30 30 30 31 30 30 30 29 29 30 33 31 32 32 32 31 30 30 29 28 27 26 25 24 23 22 21 21 20 20 20 20 20 20 19 19 19 19 19 19
30 29 29 30 31 31 31 31 30 29 29 29 29 29 32 32 32 32 31 30 30 29 28 27 26 25 24 24 23 22 21 20 20 20 20 19 19 19 19 19 19 18 18 18
29 28 27 28 29 30 30 31 31 30 30 29 29 29 31 32 32 32 31 30 29 28 27 26 25 25 24 23 23 22 21 21 20 19 19 19 19 19 19 18 18 18 18 18
29 28 28 28 29 29 29 30 31 30 29 29 30 29 30 31 31 31 30 29 28 27 26 25 25 24 23 23 22 22 21 20 20 19 19 19 19 18 18 18 18 18 18 18
28 27 28 29 30 30 30 30 30 30 30 30 30 30 30 30 30 30 29 28 28 27 26 25 24 23 22 22 21 21 21 20 20 19 19 18 18 18 18 18 18 18 18 17
27 27 27 27 29 30 30 30 31 31 31 31 30 30 31 30 30 29 29 28 27 26 25 24 23 22 22 21 21 20 20 19 19 19 18 18 18 18 18 17 17 17 17 17
27 25 26 27 28 29 28 30 30 30 31 31 30 30 30 30 29 28 28 27 26 25 24 23 22 21 21 20 20 20 19 19 18 18 18 18 18 17 17 17 17 17 17 17
26 25 25 26 27 26 29 31 31 31 31 31 30 30 30 29 28 27 27 26 26 25 24 23 22 21 20 20 19 19 18 18 18 18 17 17 17 17 17 16 16 16 16 16
26 25 25 25 26 27 29 30 31 30 29 30 29 29 29 29 28 27 26 25 24 23 23 22 21 20 20 19 19 18 18 18 18 17 17 17 17 17 16 16 16 16 16 15
26 25 24 25 25 25 28 30 31 30 28 28 28 27 27 28 27 26 25 24 23 22 22 21 20 20 19 19 18 18 18 17 17 17 17 17 16 16 16 16 15 15 15 15
24 24 24 24 24 26 28 30 30 27 26 27 27 27 27 27 26 25 24 23 22 21 20 20 19 19 18 18 18 18 17 17 17 16 16 16 16 16 15 15 15 15 15 15
24 24 23 24 24 24 27 28 27 26 26 26 26 26 25 24 24 23 22 21 21 20 19 19 18 18 18 17 17 17 17 16 16 16 16 15 15 15 15 15 14 14 14 14
25 24 24 23 24 24 24 24 24 25 25 25 25 25 24 23 23 22 21 20 20 19 18 18 18 17 17 17 17 16 16 16 16 15 15 15 15 15 14 14 14 14 14 13
24 25 23 23 23 24 23 23 23 24 24 23 24 23 23 22 22 21 20 19 19 18 18 17 17 17 16 16 16 16 16 15 15 15 14 14 14 14 14 14 14 13 13 13
23 24 23 22 23 23 23 22 22 22 22 23 22 22 22 21 21 20 19 18 18 18 17 17 16 16 15 15 15 15 15 15 15 14 14 14 14 14 14 14 13 13 13 13
23 23 23 22 22 22 21 21 21 21 21 21 21 21 20 20 20 19 18 18 17 17 17 16 16 15 15 15 15 15 15 15 14 14 14 13 13 13 13 13 13 13 13 12
Wind_Speed
12 13 15 16 17 16 13 11 11 8 7 7 8 8 8 9 10 12 13 15 16 16 18 17 16 16 15 13 12 11 10 9 8 6 6 6 5 4 3 4 7 7 7 7
13 17 18 16 15 15 15 13 13 7 7 7 8 10 10 11 11 12 13 14 16 17 17 17 16 15 15 14 13 12 11 11 9 7 5 5 5 4 5 4 7 9 8 8
20 14 17 17 16 15 16 15 13 10 6 8 10 12 13 13 11 13 14 14 15 18 19 19 17 15 16 16 15 13 12 11 11 9 6 5 4 3 4 5 5 7 9 9
18 17 13 16 16 15 15 14 13 11 9 9 11 11 12 14 14 13 13 13 14 16 18 19 18 17 16 15 15 12 12 11 10 9 9 9 7 6 6 5 6 7 8 9
16 17 16 16 16 15 14 11 11 13 12 12 13 12 10 13 14 14 14 14 13 14 17 19 19 17 16 15 15 13 12 11 11 10 9 8 7 6 4 5 6 6 6 8
18 16 16 15 15 14 13 11 10 12 11 15 15 14 10 9 12 13 13 13 13 14 15 17 17 16 14 14 14 14 12 11 11 11 10 10 9 7 7 7 6 6 5 6
18 18 15 13 15 16 15 11 9 10 11 13 14 13 8 6 7 7 8 11 13 13 14 15 16 16 14 14 13 13 13 12 11 12 10 10 9 8 8 7 6 6 5 5
18 18 17 15 16 14 17 17 12 10 10 11 13 12 8 7 5 5 5 7 9 12 13 14 15 15 15 15 13 13 13 12 11 11 10 8 8 8 7 8 6 6 5 5
15 18 18 18 17 17 18 18 18 15 14 11 10 12 10 8 7 7 7 7 7 9 11 13 14 15 14 14 14 14 13 12 11 11 9 8 8 8 7 6 6 5 5 5
12 12 16 18 15 19 18 18 13 13 11 12 11 11 9 13 11 9 7 8 8 8 9 11 12 12 12 12 12 12 11 11 10 10 9 9 8 7 6 5 5 5 4 4
17 11 14 18 18 19 18 19 15 12 11 13 9 4 3 10 10 9 7 7 7 8 9 9 9 10 10 10 11 10 10 10 9 9 8 6 7 7 6 5 4 4 4 3
16 10 12 17 17 17 18 18 17 12 10 11 10 4 3 7 9 8 7 7 7 6 7 8 9 9 8 8 9 10 9 9 9 8 7 5 5 5 5 5 4 4 4 3
14 9 11 15 15 18 18 18 17 15 11 12 12 4 5 5 6 8 9 9 7 6 6 7 7 7 7 6 6 8 8 8 8 7 6 5 4 4 4 4 4 3 3 2
10 11 13 14 14 17 18 18 18 17 13 14 12 6 5 6 7 8 9 9 9 7 6 6 7 6 6 5 5 5 6 7 7 6 6 5 4 3 3 3 3 3 3 2
10 13 14 15 12 14 18 19 19 19 17 14 10 10 9 7 6 6 8 9 9 8 7 7 7 7 6 6 5 4 5 6 6 6 5 5 4 4 3 3 3 3 3 3
10 9 13 16 15 13 15 18 19 19 18 16 11 6 4 5 6 6 7 7 8 8 7 8 8 8 7 6 6 6 6 6 6 6 6 5 5 5 4 4 4 4 4 4
13 9 11 13 14 14 16 16 16 16 16 14 11 7 5 6 6 6 6 6 6 8 8 8 8 8 7 6 7 7 7 7 7 7 6 6 6 5 4 5 5 5 5 5
9 9 8 11 11 15 12 13 14 14 13 10 8 6 5 5 7 7 7 6 7 7 8 9 9 9 8 8 8 9 8 8 8 7 6 6 6 6 6 6 6 6 6 6
9 9 9 10 12 13 10 12 13 11 8 6 6 4 3 6 7 6 6 7 8 8 9 9 10 10 9 9 10 10 9 8 8 7 7 7 7 7 7 7 7 6 7 7
12 9 9 10 11 10 9 9 8 8 8 6 6 6 5 6 4 5 8 9 10 10 10 10 10 11 10 9 10 10 9 9 8 8 8 8 7 7 7 7 7 7 7 7
15 13 14 13 10 6 4 6 8 9 5 5 6 7 5 3 3 7 11 10 11 11 12 11 11 10 9 10 10 10 10 9 8 9 8 8 7 7 8 8 7 7 7 8
14 13 13 12 11 5 3 3 4 4 6 4 5 6 6 8 8 10 11 11 12 12 12 12 11 10 9 9 10 11 10 9 8 9 8 8 7 6 7 7 7 7 7 8
9 6 5 4 4 4 7 7 7 7 6 5 5 6 9 9 8 9 10 11 11 11 11 11 12 11 10 9 10 11 9 9 9 9 8 8 8 7 6 6 6 6 5 6
7 5 5 4 3 5 7 7 6 6 5 3 4 7 8 8 8 9 10 10 10 11 11 11 11 11 10 9 10 10 9 8 9 9 8 7 8 8 8 6 6 6 5 5
2 5 6 5 4 3 4 4 5 5 4 4 5 6 6 7 8 9 9 10 9 9 10 10 10 11 10 10 10 9 9 8 9 9 7 7 8 10 10 10 9 8 8 6
3 3 5 4 4 4 5 5 5 5 5 5 5 6 6 6 8 9 9 9 9 10 10 10 11 11 10 10 9 8 8 8 8 7 6 6 7 8 9 10 10 16 13 15
Wind_Direction
209 221 224 223 224 239 251 253 247 222 180 204 224 219 205 194 184 180 179 177 178 181 178 171 172 170 164 161 162 165 173 165 168 174 180 186 182 181 186 188 167 175 198 192
210 223 231 236 234 239 251 253 257 238 192 209 234 226 211 210 197 188 186 186 184 178 175 171 174 172 169 168 168 171 177 175 181 182 186 186 176 183 193 199 171 185 198 202
219 222 220 232 234 232 240 245 249 252 215 219 240 236 218 211 208 194 188 190 189 181 177 174 177 178 176 176 176 180 181 179 187 182 180 189 171 199 196 185 184 195 198 206
229 235 225 221 229 229 235 240 247 252 242 241 234 247 215 207 204 197 193 191 193 184 178 176 178 180 181 180 180 179 178 180 184 185 188 190 191 200 204 191 193 195 202 208
224 226 226 224 225 227 236 239 242 249 248 253 246 247 234 203 204 200 197 195 191 184 179 176 181 180 182 182 180 179 177 182 185 191 194 198 205 205 205 198 198 197 202 210
234 225 225 226 227 228 232 235 237 246 249 245 246 249 248 218 207 205 195 188 184 185 180 175 177 174 180 181 180 179 178 185 186 193 197 199 206 206 207 205 199 200 205 211
228 227 217 220 223 216 218 217 215 222 229 240 241 241 237 218 197 194 192 187 183 183 179 173 172 172 177 181 179 177 176 183 187 193 199 198 203 208 213 212 206 204 212 212
210 218 212 210 221 211 212 216 220 225 228 240 231 230 222 199 179 177 176 181 178 178 175 173 172 171 178 181 179 177 176 182 186 192 196 197 201 209 214 213 213 205 213 223
209 217 207 205 215 222 211 221 233 249 267 261 234 217 195 173 178 183 179 175 180 178 174 170 170 173 178 179 179 179 177 179 184 190 193 196 201 211 215 206 210 216 212 224
238 223 203 199 207 224 226 217 229 243 261 267 256 223 203 171 178 181 178 178 174 172 172 169 169 169 170 172 174 173 173 177 182 188 195 199 201 209 212 206 203 211 214 228
239 234 207 193 203 212 219 222 227 236 245 253 262 271 178 165 168 171 173 167 159 169 170 165 162 156 157 164 166 165 170 171 179 190 193 198 196 201 203 203 208 208 212 216
226 231 218 201 204 220 219 225 223 230 238 255 265 258 87 139 147 148 150 135 127 133 142 146 142 142 147 155 162 167 172 174 177 182 182 189 189 187 190 197 202 202 203 204
214 233 222 204 201 211 223 223 227 229 238 245 251 211 151 142 143 143 134 120 119 111 116 124 124 131 139 150 152 158 165 169 169 170 172 177 177 174 183 189 186 186 184 180
220 227 236 218 205 202 214 222 222 223 229 234 237 196 179 159 156 145 137 134 133 128 122 124 124 128 132 135 135 144 155 154 153 156 162 157 152 153 161 156 146 151 158 158
218 222 240 255 241 215 208 215 220 223 228 235 234 207 190 163 160 150 138 137 134 133 134 131 131 130 133 135 133 135 132 126 134 139 140 136 132 131 131 130 127 126 130 131
214 238 236 248 248 235 221 212 216 221 225 233 238 224 163 143 137 132 130 133 138 140 140 132 128 128 132 131 131 123 112 117 123 128 125 124 125 123 122 117 108 107 102 97
200 228 239 239 238 236 229 219 219 223 225 229 225 213 163 152 138 133 131 135 138 141 139 133 128 125 122 122 119 118 110 118 117 115 114 117 118 116 112 111 101 97 93 90
204 216 239 245 236 235 235 221 224 225 226 222 213 196 171 158 132 123 128 133 137 131 134 133 128 124 120 116 114 108 107 107 109 108 104 103 107 103 99 98 96 93 90 87
204 209 229 240 234 233 229 215 215 215 218 192 187 201 186 147 130 127 128 126 125 128 123 123 123 120 115 114 114 112 111 108 106 102 98 94 97 100 100 99 96 92 92 88
199 204 226 239 238 229 223 212 206 201 197 181 166 162 187 163 171 135 115 114 114 114 116 116 114 113 112 111 112 111 108 103 99 96 93 94 96 97 96 97 98 95 94 92
195 200 217 234 239 243 258 213 193 206 177 148 153 156 165 136 98 109 111 108 108 110 113 114 112 110 108 109 109 107 104 98 96 95 92 92 93 96 98 100 101 102 101 96
197 201 210 226 232 226 314 217 176 100 76 85 121 132 115 102 107 113 112 113 118 118 118 116 111 107 108 112 111 108 104 103 101 99 97 96 93 94 99 103 103 106 110 107
202 201 196 212 209 85 61 71 74 84 85 72 85 105 116 118 120 121 123 125 126 124 119 116 114 110 106 105 109 110 105 102 102 99 97 96 91 86 90 98 104 109 112 108
192 188 193 188 155 91 77 81 72 74 85 85 97 107 113 120 123 124 123 126 127 126 124 121 117 114 109 105 105 108 109 107 107 104 100 98 96 90 76 72 73 73 70 89
207 196 198 181 163 117 85 78 87 81 85 90 97 112 118 125 127 127 126 126 127 126 124 124 122 118 115 113 113 114 115 115 111 108 109 106 96 89 79 67 53 63 54 54
239 232 214 191 153 131 101 70 78 88 86 92 99 103 112 117 123 127 127 128 128 126 123 123 122 121 119 116 114 113 116 119 121 123 124 119 114 110 105 98 80 57 64 64
Height
1491 1492 1490 1484 1481 1480 1478 1480 1480 1475 1473 1481 1486 1489 1488 1489 1493 1497 1502 1507 1511 1516 1521 1525 1529 1533 1536 1539 1541 1544 1547 1549 1551 1554 1556 1558 1561 1563 1565 1567 1568 1569 1570 1572
1488 1489 1481 1477 1476 1478 1479 1483 1481 1475 1473 1480 1486 1488 1486 1487 1489 1494 1498 1502 1507 1512 1518 1522 1526 1530 1533 1535 1538 1541 1544 1546 1549 1552 1554 1557 1559 1561 1563 1565 1566 1567 1568 1570
1484 1478 1476 1477 1478 1481 1482 1483 1482 1480 1476 1478 1486 1491 1486 1484 1486 1490 1493 1498 1502 1507 1512 1518 1523 1527 1530 1532 1535 1538 1541 1544 1546 1549 1552 1555 1557 1559 1561 1562 1563 1564 1566 1567
1477 1472 1472 1476 1478 1479 1486 1477 1477 1479 1486 1489 1487 1501 1485 1480 1482 1485 1489 1493 1498 1502 1508 1514 1518 1523 1526 1529 1532 1535 1538 1541 1544 1547 1549 1551 1553 1555 1557 1559 1560 1561 1563 1564
1474 1471 1472 1476 1476 1476 1478 1474 1477 1480 1485 1491 1486 1495 1485 1475 1481 1480 1484 1489 1494 1499 1504 1509 1514 1519 1523 1527 1530 1533 1535 1538 1541 1543 1546 1548 1551 1553 1555 1556 1558 1559 1560 1561
1468 1466 1468 1471 1472 1473 1474 1477 1480 1482 1486 1503 1490 1494 1491 1475 1476 1475 1479 1484 1490 1495 1501 1506 1511 1516 1521 1525 1528 1530 1532 1534 1537 1540 1543 1545 1547 1550 1552 1553 1555 1556 1557 1558
1473 1466 1465 1468 1473 1473 1476 1488 1504 1509 1507 1503 1483 1488 1484 1469 1468 1472 1476 1481 1486 1492 1497 1503 1508 1513 1518 1522 1525 1527 1529 1531 1533 1536 1539 1541 1543 1546 1548 1550 1551 1552 1553 1554
1478 1477 1465 1466 1471 1475 1477 1483 1502 1512 1508 1498 1483 1486 1474 1464 1467 1472 1476 1480 1484 1489 1494 1500 1505 1509 1514 1518 1521 1524 1526 1528 1531 1533 1535 1538 1540 1542 1544 1545 1547 1549 1550 1551
1468 1471 1459 1462 1466 1468 1477 1479 1475 1486 1488 1494 1484 1474 1466 1463 1467 1471 1475 1480 1484 1488 1493 1498 1503 1507 1511 1514 1517 1520 1523 1525 1528 1530 1533 1535 1537 1539 1541 1542 1544 1545 1546 1548
1454 1465 1458 1459 1464 1466 1466 1472 1480 1488 1503 1505 1489 1479 1475 1469 1469 1470 1474 1478 1483 1488 1492 1496 1500 1505 1508 1512 1515 1518 1521 1523 1525 1528 1530 1532 1534 1536 1538 1539 1540 1542 1543 1544
1453 1463 1460 1460 1467 1469 1471 1472 1474 1479 1484 1498 1501 1489 1458 1464 1465 1469 1473 1478 1482 1487 1491 1495 1499 1503 1506 1510 1514 1516 1519 1521 1523 1526 1528 1530 1531 1533 1535 1536 1537 1538 1540 1540
1453 1458 1463 1460 1457 1459 1463 1467 1472 1487 1489 1485 1492 1488 1459 1462 1464 1468 1473 1478 1483 1487 1491 1494 1498 1502 1505 1509 1513 1515 1517 1519 1521 1524 1526 1528 1530 1531 1532 1533 1535 1536 1537 1538
1453 1460 1472 1471 1468 1462 1463 1462 1464 1470 1477 1484 1489 1486 1463 1465 1467 1470 1474 1479 1485 1489 1492 1495 1498 1502 1505 1509 1512 1514 1516 1518 1520 1522 1524 1525 1527 1528 1530 1531 1533 1534 1534 1535
1452 1460 1466 1472 1466 1460 1465 1463 1462 1468 1479 1481 1479 1478 1470 1468 1470 1472 1476 1481 1486 1490 1494 1497 1499 1503 1506 1508 1511 1513 1516 1518 1519 1521 1522 1524 1525 1527 1528 1529 1531 1532 1532 1533
1453 1461 1460 1455 1449 1450 1456 1460 1460 1464 1466 1472 1470 1469 1468 1467 1470 1473 1477 1481 1486 1491 1495 1498 1500 1503 1506 1508 1511 1513 1515 1517 1518 1520 1521 1522 1524 1525 1527 1528 1529 1530 1531 1532
1456 1461 1461 1461 1451 1450 1452 1453 1455 1458 1460 1462 1465 1467 1463 1466 1470 1474 1478 1482 1487 1491 1495 1499 1501 1503 1506 1509 1511 1513 1514 1516 1517 1519 1520 1522 1523 1525 1526 1527 1528 1529 1529 1530
1457 1465 1468 1466 1455 1454 1461 1452 1453 1455 1454 1458 1466 1466 1463 1467 1472 1476 1480 1484 1488 1492 1496 1499 1501 1504 1507 1509 1511 1512 1513 1514 1517 1518 1520 1521 1523 1524 1525 1526 1527 1528 1529 1530
1458 1465 1467 1466 1465 1478 1456 1442 1445 1450 1452 1453 1457 1461 1466 1469 1473 1477 1481 1485 1488 1492 1496 1499 1502 1504 1507 1509 1511 1512 1514 1515 1517 1519 1520 1522 1523 1524 1525 1526 1527 1528 1529 1530
1456 1463 1468 1469 1471 1466 1451 1443 1444 1451 1456 1455 1460 1464 1467 1470 1474 1479 1482 1486 1489 1493 1496 1499 1502 1504 1507 1509 1511 1513 1515 1517 1519 1520 1521 1522 1523 1525 1526 1527 1528 1529 1530 1531
1456 1460 1469 1470 1475 1475 1455 1442 1443 1450 1462 1459 1460 1466 1469 1471 1476 1481 1484 1487 1491 1493 1497 1499 1502 1504 1507 1509 1512 1514 1516 1518 1519 1520 1521 1523 1524 1525 1527 1528 1529 1530 1531 1532
1458 1463 1469 1471 1472 1462 1447 1443 1446 1464 1466 1461 1462 1467 1470 1473 1477 1482 1485 1489 1492 1495 1498 1500 1502 1505 1508 1510 1512 1515 1517 1519 1520 1521 1522 1524 1525 1526 1528 1529 1530 1531 1532 1533
1455 1460 1466 1468 1473 1470 1451 1447 1453 1460 1460 1461 1464 1467 1471 1475 1479 1483 1487 1490 1494 1497 1500 1502 1504 1506 1508 1511 1512 1515 1517 1519 1521 1522 1523 1525 1526 1528 1530 1531 1532 1533 1534 1535
1448 1452 1455 1461 1464 1459 1456 1456 1459 1461 1463 1465 1466 1469 1473 1477 1481 1485 1489 1493 1496 1499 1501 1503 1505 1507 1510 1511 1513 1515 1518 1520 1521 1523 1525 1526 1528 1529 1531 1533 1534 1535 1536 1536
1446 1448 1454 1458 1458 1458 1459 1461 1463 1465 1467 1468 1469 1472 1475 1479 1483 1487 1490 1494 1496 1499 1501 1504 1506 1509 1511 1513 1515 1517 1519 1521 1522 1524 1526 1528 1529 1531 1532 1534 1535 1536 1537 1538
1448 1449 1452 1458 1459 1461 1463 1465 1466 1468 1469 1470 1472 1474 1477 1480 1484 1488 1491 1494 1497 1500 1502 1505 1507 1510 1512 1514 1517 1518 1520 1521 1523 1525 1527 1529 1530 1531 1533 1534 1535 1537 1538 1539
1449 1451 1454 1458 1459 1461 1466 1467 1469 1470 1471 1473 1474 1476 1479 1482 1485 1488 1492 1495 1498 1500 1503 1506 1508 1511 1513 1516 1518 1520 1521 1523 1524 1526 1528 1530 1531 1532 1534 1535 1536 1538 1539 1540